Year,Month,Day,Hour,Minute,Value (Times are PST for barometer in hPa)
2008,01,04,00,00,993.40
2008,01,04,00,01,993.42
2008,01,04,00,02,993.40
2008,01,04,00,03,993.39
2008,01,04,00,04,993.33
2008,01,04,00,05,993.36
2008,01,04,00,06,993.33
2008,01,04,00,07,993.33
2008,01,04,00,08,993.30
2008,01,04,00,09,993.30
2008,01,04,00,10,993.26
2008,01,04,00,11,993.30
2008,01,04,00,12,993.30
2008,01,04,00,13,993.26
2008,01,04,00,14,993.15
2008,01,04,00,15,993.08
2008,01,04,00,16,992.98
2008,01,04,00,17,992.85
2008,01,04,00,18,992.71
2008,01,04,00,19,992.65
2008,01,04,00,20,992.62
2008,01,04,00,21,992.62
2008,01,04,00,22,992.62
2008,01,04,00,23,992.62
2008,01,04,00,24,992.65
2008,01,04,00,25,992.65
2008,01,04,00,26,992.65
2008,01,04,00,27,992.69
2008,01,04,00,28,992.72
2008,01,04,00,29,992.75
2008,01,04,00,30,992.69
2008,01,04,00,31,992.68
2008,01,04,00,32,992.62
2008,01,04,00,33,992.69
2008,01,04,00,34,992.65
2008,01,04,00,35,992.62
2008,01,04,00,36,992.58
2008,01,04,00,37,992.55
2008,01,04,00,38,992.52
2008,01,04,00,39,992.48
2008,01,04,00,40,992.48
2008,01,04,00,41,992.48
2008,01,04,00,42,992.45
2008,01,04,00,43,992.47
2008,01,04,00,44,992.42
2008,01,04,00,45,992.41
2008,01,04,00,46,992.35
2008,01,04,00,47,992.31
2008,01,04,00,48,992.31
2008,01,04,00,49,992.31
2008,01,04,00,50,992.28
2008,01,04,00,51,992.27
2008,01,04,00,52,992.21
2008,01,04,00,53,992.21
2008,01,04,00,54,992.11
2008,01,04,00,55,992.08
2008,01,04,00,56,992.04
2008,01,04,00,57,992.08
2008,01,04,00,58,992.08
2008,01,04,00,59,992.07
2008,01,04,01,00,991.97
2008,01,04,01,01,991.91
2008,01,04,01,02,991.87
2008,01,04,01,03,991.84
2008,01,04,01,04,991.92
2008,01,04,01,05,992.01
2008,01,04,01,06,992.08
2008,01,04,01,07,992.11
2008,01,04,01,08,992.14
2008,01,04,01,09,992.18
2008,01,04,01,10,992.21
2008,01,04,01,11,992.21
2008,01,04,01,12,992.21
2008,01,04,01,13,992.17
2008,01,04,01,14,992.08
2008,01,04,01,15,992.04
2008,01,04,01,16,992.00
2008,01,04,01,17,991.94
2008,01,04,01,18,991.94
2008,01,04,01,19,991.91
2008,01,04,01,20,991.81
2008,01,04,01,21,991.73
2008,01,04,01,22,991.67
2008,01,04,01,23,991.60
2008,01,04,01,24,991.57
2008,01,04,01,25,991.57
2008,01,04,01,26,991.52
2008,01,04,01,27,991.47
2008,01,04,01,28,991.43
2008,01,04,01,29,991.47
2008,01,04,01,30,991.53
2008,01,04,01,31,991.53
2008,01,04,01,32,991.57
2008,01,04,01,33,991.57
2008,01,04,01,34,991.60
2008,01,04,01,35,991.60
2008,01,04,01,36,991.57
2008,01,04,01,37,991.57
2008,01,04,01,38,991.57
2008,01,04,01,39,991.58
2008,01,04,01,40,991.64
2008,01,04,01,41,991.64
2008,01,04,01,42,991.67
2008,01,04,01,43,991.70
2008,01,04,01,44,991.70
2008,01,04,01,45,991.70
2008,01,04,01,46,991.67
2008,01,04,01,47,991.64
2008,01,04,01,48,991.70
2008,01,04,01,49,991.70
2008,01,04,01,50,991.67
2008,01,04,01,51,991.63
2008,01,04,01,52,991.57
2008,01,04,01,53,991.52
2008,01,04,01,54,991.42
2008,01,04,01,55,991.37
2008,01,04,01,56,991.39
2008,01,04,01,57,991.30
2008,01,04,01,58,991.33
2008,01,04,01,59,991.23
2008,01,04,02,00,991.20
2008,01,04,02,01,991.08
2008,01,04,02,02,990.95
2008,01,04,02,03,990.89
2008,01,04,02,04,990.82
2008,01,04,02,05,990.86
2008,01,04,02,06,990.93
2008,01,04,02,07,991.03
2008,01,04,02,08,991.06
2008,01,04,02,09,991.03
2008,01,04,02,10,990.98
2008,01,04,02,11,990.93
2008,01,04,02,12,990.86
2008,01,04,02,13,990.86
2008,01,04,02,14,990.90
2008,01,04,02,15,990.97
2008,01,04,02,16,991.06
2008,01,04,02,17,991.06
2008,01,04,02,18,990.98
2008,01,04,02,19,990.86
2008,01,04,02,20,990.79
2008,01,04,02,21,990.76
2008,01,04,02,22,990.79
2008,01,04,02,23,990.82
2008,01,04,02,24,990.86
2008,01,04,02,25,990.89
2008,01,04,02,26,990.81
2008,01,04,02,27,990.71
2008,01,04,02,28,990.54
2008,01,04,02,29,990.34
2008,01,04,02,30,990.19
2008,01,04,02,31,990.04
2008,01,04,02,32,990.00
2008,01,04,02,33,989.95
2008,01,04,02,34,990.04
2008,01,04,02,35,990.08
2008,01,04,02,36,990.08
2008,01,04,02,37,990.04
2008,01,04,02,38,990.01
2008,01,04,02,39,989.90
2008,01,04,02,40,989.81
2008,01,04,02,41,989.81
2008,01,04,02,42,989.77
2008,01,04,02,43,989.77
2008,01,04,02,44,989.81
2008,01,04,02,45,989.81
2008,01,04,02,46,989.77
2008,01,04,02,47,989.76
2008,01,04,02,48,989.71
2008,01,04,02,49,989.71
2008,01,04,02,50,989.67
2008,01,04,02,51,989.67
2008,01,04,02,52,989.67
2008,01,04,02,53,989.64
2008,01,04,02,54,989.60
2008,01,04,02,55,989.58
2008,01,04,02,56,989.78
2008,01,04,02,57,990.01
2008,01,04,02,58,990.01
2008,01,04,02,59,989.98
2008,01,04,03,00,989.91
2008,01,04,03,01,989.81
2008,01,04,03,02,989.84
2008,01,04,03,03,989.77
2008,01,04,03,04,989.74
2008,01,04,03,05,989.74
2008,01,04,03,06,989.71
2008,01,04,03,07,989.70
2008,01,04,03,08,989.64
2008,01,04,03,09,989.57
2008,01,04,03,10,989.59
2008,01,04,03,11,989.50
2008,01,04,03,12,989.54
2008,01,04,03,13,989.47
2008,01,04,03,14,989.47
2008,01,04,03,15,989.44
2008,01,04,03,16,989.40
2008,01,04,03,17,989.30
2008,01,04,03,18,989.30
2008,01,04,03,19,989.30
2008,01,04,03,20,989.30
2008,01,04,03,21,989.33
2008,01,04,03,22,989.33
2008,01,04,03,23,989.27
2008,01,04,03,24,989.23
2008,01,04,03,25,989.23
2008,01,04,03,26,989.16
2008,01,04,03,27,989.16
2008,01,04,03,28,989.16
2008,01,04,03,29,989.16
2008,01,04,03,30,989.10
2008,01,04,03,31,989.10
2008,01,04,03,32,989.05
2008,01,04,03,33,988.96
2008,01,04,03,34,988.96
2008,01,04,03,35,988.89
2008,01,04,03,36,988.89
2008,01,04,03,37,988.89
2008,01,04,03,38,988.79
2008,01,04,03,39,988.76
2008,01,04,03,40,988.72
2008,01,04,03,41,988.66
2008,01,04,03,42,988.69
2008,01,04,03,43,988.62
2008,01,04,03,44,988.55
2008,01,04,03,45,988.49
2008,01,04,03,46,988.44
2008,01,04,03,47,988.35
2008,01,04,03,48,988.28
2008,01,04,03,49,988.28
2008,01,04,03,50,988.25
2008,01,04,03,51,988.18
2008,01,04,03,52,988.14
2008,01,04,03,53,988.07
2008,01,04,03,54,988.01
2008,01,04,03,55,988.04
2008,01,04,03,56,987.95
2008,01,04,03,57,987.88
2008,01,04,03,58,987.78
2008,01,04,03,59,987.73
2008,01,04,04,00,987.64
2008,01,04,04,01,987.61
2008,01,04,04,02,987.54
2008,01,04,04,03,987.51
2008,01,04,04,04,987.57
2008,01,04,04,05,987.47
2008,01,04,04,06,987.47
2008,01,04,04,07,987.51
2008,01,04,04,08,987.40
2008,01,04,04,09,987.34
2008,01,04,04,10,987.33
2008,01,04,04,11,987.23
2008,01,04,04,12,987.27
2008,01,04,04,13,987.19
2008,01,04,04,14,987.13
2008,01,04,04,15,987.12
2008,01,04,04,16,987.03
2008,01,04,04,17,986.96
2008,01,04,04,18,986.96
2008,01,04,04,19,986.90
2008,01,04,04,20,986.82
2008,01,04,04,21,986.73
2008,01,04,04,22,986.69
2008,01,04,04,23,986.69
2008,01,04,04,24,986.62
2008,01,04,04,25,986.59
2008,01,04,04,26,986.62
2008,01,04,04,27,986.59
2008,01,04,04,28,986.58
2008,01,04,04,29,986.46
2008,01,04,04,30,986.46
2008,01,04,04,31,986.42
2008,01,04,04,32,986.42
2008,01,04,04,33,986.39
2008,01,04,04,34,986.35
2008,01,04,04,35,986.31
2008,01,04,04,36,986.20
2008,01,04,04,37,986.03
2008,01,04,04,38,986.11
2008,01,04,04,39,986.02
2008,01,04,04,40,986.08
2008,01,04,04,41,985.98
2008,01,04,04,42,985.94
2008,01,04,04,43,985.88
2008,01,04,04,44,985.87
2008,01,04,04,45,985.71
2008,01,04,04,46,985.63
2008,01,04,04,47,985.58
2008,01,04,04,48,985.63
2008,01,04,04,49,985.44
2008,01,04,04,50,985.47
2008,01,04,04,51,985.41
2008,01,04,04,52,985.41
2008,01,04,04,53,985.34
2008,01,04,04,54,985.29
2008,01,04,04,55,985.17
2008,01,04,04,56,985.17
2008,01,04,04,57,985.10
2008,01,04,04,58,985.03
2008,01,04,04,59,985.00
2008,01,04,05,00,985.00
2008,01,04,05,01,984.97
2008,01,04,05,02,984.93
2008,01,04,05,03,984.85
2008,01,04,05,04,984.76
2008,01,04,05,05,984.76
2008,01,04,05,06,984.72
2008,01,04,05,07,984.63
2008,01,04,05,08,984.59
2008,01,04,05,09,984.49
2008,01,04,05,10,984.53
2008,01,04,05,11,984.46
2008,01,04,05,12,984.36
2008,01,04,05,13,984.29
2008,01,04,05,14,984.22
2008,01,04,05,15,984.22
2008,01,04,05,16,984.12
2008,01,04,05,17,984.19
2008,01,04,05,18,984.15
2008,01,04,05,19,984.05
2008,01,04,05,20,984.04
2008,01,04,05,21,983.95
2008,01,04,05,22,983.85
2008,01,04,05,23,983.88
2008,01,04,05,24,983.78
2008,01,04,05,25,983.78
2008,01,04,05,26,983.78
2008,01,04,05,27,983.68
2008,01,04,05,28,983.67
2008,01,04,05,29,983.58
2008,01,04,05,30,983.61
2008,01,04,05,31,983.54
2008,01,04,05,32,983.48
2008,01,04,05,33,983.54
2008,01,04,05,34,983.54
2008,01,04,05,35,983.54
2008,01,04,05,36,983.54
2008,01,04,05,37,983.48
2008,01,04,05,38,983.53
2008,01,04,05,39,983.44
2008,01,04,05,40,983.50
2008,01,04,05,41,983.37
2008,01,04,05,42,983.34
2008,01,04,05,43,983.34
2008,01,04,05,44,983.27
2008,01,04,05,45,983.24
2008,01,04,05,46,983.17
2008,01,04,05,47,983.14
2008,01,04,05,48,983.04
2008,01,04,05,49,982.99
2008,01,04,05,50,982.90
2008,01,04,05,51,982.93
2008,01,04,05,52,982.87
2008,01,04,05,53,982.87
2008,01,04,05,54,982.83
2008,01,04,05,55,982.82
2008,01,04,05,56,982.59
2008,01,04,05,57,982.59
2008,01,04,05,58,982.53
2008,01,04,05,59,982.49
2008,01,04,06,00,982.43
2008,01,04,06,01,982.43
2008,01,04,06,02,982.39
2008,01,04,06,03,982.29
2008,01,04,06,04,982.25
2008,01,04,06,05,982.12
2008,01,04,06,06,982.05
2008,01,04,06,07,982.05
2008,01,04,06,08,981.99
2008,01,04,06,09,981.95
2008,01,04,06,10,981.92
2008,01,04,06,11,981.85
2008,01,04,06,12,981.81
2008,01,04,06,13,981.71
2008,01,04,06,14,981.65
2008,01,04,06,15,981.58
2008,01,04,06,16,981.48
2008,01,04,06,17,981.44
2008,01,04,06,18,981.38
2008,01,04,06,19,981.38
2008,01,04,06,20,981.31
2008,01,04,06,21,981.31
2008,01,04,06,22,981.31
2008,01,04,06,23,981.27
2008,01,04,06,24,981.27
2008,01,04,06,25,981.17
2008,01,04,06,26,981.09
2008,01,04,06,27,981.00
2008,01,04,06,28,980.94
2008,01,04,06,29,980.87
2008,01,04,06,30,980.80
2008,01,04,06,31,980.80
2008,01,04,06,32,980.73
2008,01,04,06,33,980.66
2008,01,04,06,34,980.56
2008,01,04,06,35,980.55
2008,01,04,06,36,980.46
2008,01,04,06,37,980.39
2008,01,04,06,38,980.39
2008,01,04,06,39,980.33
2008,01,04,06,40,980.33
2008,01,04,06,41,980.29
2008,01,04,06,42,980.29
2008,01,04,06,43,980.22
2008,01,04,06,44,980.12
2008,01,04,06,45,980.08
2008,01,04,06,46,979.95
2008,01,04,06,47,979.89
2008,01,04,06,48,979.89
2008,01,04,06,49,979.85
2008,01,04,06,50,979.84
2008,01,04,06,51,979.75
2008,01,04,06,52,979.78
2008,01,04,06,53,979.75
2008,01,04,06,54,979.71
2008,01,04,06,55,979.61
2008,01,04,06,56,979.65
2008,01,04,06,57,979.58
2008,01,04,06,58,979.48
2008,01,04,06,59,979.45
2008,01,04,07,00,979.41
2008,01,04,07,01,979.45
2008,01,04,07,02,979.45
2008,01,04,07,03,979.41
2008,01,04,07,04,979.38
2008,01,04,07,05,979.31
2008,01,04,07,06,979.31
2008,01,04,07,07,979.24
2008,01,04,07,08,979.28
2008,01,04,07,09,979.21
2008,01,04,07,10,979.10
2008,01,04,07,11,979.01
2008,01,04,07,12,978.94
2008,01,04,07,13,978.90
2008,01,04,07,14,978.87
2008,01,04,07,15,978.80
2008,01,04,07,16,978.77
2008,01,04,07,17,978.70
2008,01,04,07,18,978.60
2008,01,04,07,19,978.60
2008,01,04,07,20,978.63
2008,01,04,07,21,978.60
2008,01,04,07,22,978.60
2008,01,04,07,23,978.53
2008,01,04,07,24,978.50
2008,01,04,07,25,978.46
2008,01,04,07,26,978.40
2008,01,04,07,27,978.42
2008,01,04,07,28,978.33
2008,01,04,07,29,978.29
2008,01,04,07,30,978.23
2008,01,04,07,31,978.26
2008,01,04,07,32,978.23
2008,01,04,07,33,978.16
2008,01,04,07,34,978.16
2008,01,04,07,35,978.16
2008,01,04,07,36,978.12
2008,01,04,07,37,978.09
2008,01,04,07,38,978.12
2008,01,04,07,39,978.06
2008,01,04,07,40,978.05
2008,01,04,07,41,977.96
2008,01,04,07,42,977.91
2008,01,04,07,43,977.79
2008,01,04,07,44,977.72
2008,01,04,07,45,977.68
2008,01,04,07,46,977.68
2008,01,04,07,47,977.68
2008,01,04,07,48,977.62
2008,01,04,07,49,977.65
2008,01,04,07,50,977.65
2008,01,04,07,51,977.62
2008,01,04,07,52,977.55
2008,01,04,07,53,977.55
2008,01,04,07,54,977.55
2008,01,04,07,55,977.45
2008,01,04,07,56,977.45
2008,01,04,07,57,977.41
2008,01,04,07,58,977.41
2008,01,04,07,59,977.31
2008,01,04,08,00,977.35
2008,01,04,08,01,977.35
2008,01,04,08,02,977.38
2008,01,04,08,03,977.40
2008,01,04,08,04,977.28
2008,01,04,08,05,977.31
2008,01,04,08,06,977.38
2008,01,04,08,07,977.28
2008,01,04,08,08,977.24
2008,01,04,08,09,977.21
2008,01,04,08,10,977.11
2008,01,04,08,11,977.08
2008,01,04,08,12,977.08
2008,01,04,08,13,977.04
2008,01,04,08,14,977.01
2008,01,04,08,15,976.97
2008,01,04,08,16,976.91
2008,01,04,08,17,976.84
2008,01,04,08,18,976.84
2008,01,04,08,19,976.74
2008,01,04,08,20,976.73
2008,01,04,08,21,976.63
2008,01,04,08,22,976.63
2008,01,04,08,23,976.63
2008,01,04,08,24,976.63
2008,01,04,08,25,976.63
2008,01,04,08,26,976.60
2008,01,04,08,27,976.57
2008,01,04,08,28,976.53
2008,01,04,08,29,976.50
2008,01,04,08,30,976.47
2008,01,04,08,31,976.40
2008,01,04,08,32,976.43
2008,01,04,08,33,976.53
2008,01,04,08,34,976.50
2008,01,04,08,35,976.50
2008,01,04,08,36,976.53
2008,01,04,08,37,976.47
2008,01,04,08,38,976.43
2008,01,04,08,39,976.43
2008,01,04,08,40,976.40
2008,01,04,08,41,976.33
2008,01,04,08,42,976.32
2008,01,04,08,43,976.16
2008,01,04,08,44,976.19
2008,01,04,08,45,976.13
2008,01,04,08,46,976.09
2008,01,04,08,47,976.06
2008,01,04,08,48,976.09
2008,01,04,08,49,975.99
2008,01,04,08,50,975.96
2008,01,04,08,51,975.89
2008,01,04,08,52,975.85
2008,01,04,08,53,975.75
2008,01,04,08,54,975.75
2008,01,04,08,55,975.72
2008,01,04,08,56,975.65
2008,01,04,08,57,975.62
2008,01,04,08,58,975.55
2008,01,04,08,59,975.54
2008,01,04,09,00,975.42
2008,01,04,09,01,975.45
2008,01,04,09,02,975.48
2008,01,04,09,03,975.55
2008,01,04,09,04,975.62
2008,01,04,09,05,975.65
2008,01,04,09,06,975.55
2008,01,04,09,07,975.58
2008,01,04,09,08,975.45
2008,01,04,09,09,975.42
2008,01,04,09,10,975.38
2008,01,04,09,11,975.35
2008,01,04,09,12,975.28
2008,01,04,09,13,975.35
2008,01,04,09,14,975.38
2008,01,04,09,15,975.31
2008,01,04,09,16,975.35
2008,01,04,09,17,975.28
2008,01,04,09,18,975.35
2008,01,04,09,19,975.34
2008,01,04,09,20,975.15
2008,01,04,09,21,975.25
2008,01,04,09,22,975.14
2008,01,04,09,23,975.11
2008,01,04,09,24,975.18
2008,01,04,09,25,975.14
2008,01,04,09,26,975.08
2008,01,04,09,27,975.11
2008,01,04,09,28,975.04
2008,01,04,09,29,975.08
2008,01,04,09,30,974.98
2008,01,04,09,31,975.04
2008,01,04,09,32,974.98
2008,01,04,09,33,974.91
2008,01,04,09,34,974.87
2008,01,04,09,35,974.71
2008,01,04,09,36,974.81
2008,01,04,09,37,974.77
2008,01,04,09,38,974.66
2008,01,04,09,39,974.57
2008,01,04,09,40,974.54
2008,01,04,09,41,974.47
2008,01,04,09,42,974.42
2008,01,04,09,43,974.25
2008,01,04,09,44,974.13
2008,01,04,09,45,974.13
2008,01,04,09,46,974.20
2008,01,04,09,47,974.13
2008,01,04,09,48,974.10
2008,01,04,09,49,974.13
2008,01,04,09,50,974.20
2008,01,04,09,51,974.20
2008,01,04,09,52,974.10
2008,01,04,09,53,974.06
2008,01,04,09,54,974.03
2008,01,04,09,55,974.09
2008,01,04,09,56,973.99
2008,01,04,09,57,974.06
2008,01,04,09,58,973.99
2008,01,04,09,59,973.99
2008,01,04,10,00,973.93
2008,01,04,10,01,973.79
2008,01,04,10,02,973.80
2008,01,04,10,03,973.53
2008,01,04,10,04,973.76
2008,01,04,10,05,973.71
2008,01,04,10,06,973.59
2008,01,04,10,07,973.68
2008,01,04,10,08,973.55
2008,01,04,10,09,973.52
2008,01,04,10,10,973.49
2008,01,04,10,11,973.49
2008,01,04,10,12,973.59
2008,01,04,10,13,973.72
2008,01,04,10,14,973.70
2008,01,04,10,15,973.85
2008,01,04,10,16,973.76
2008,01,04,10,17,973.79
2008,01,04,10,18,973.86
2008,01,04,10,19,973.89
2008,01,04,10,20,973.93
2008,01,04,10,21,973.89
2008,01,04,10,22,973.86
2008,01,04,10,23,973.65
2008,01,04,10,24,973.65
2008,01,04,10,25,973.45
2008,01,04,10,26,973.48
2008,01,04,10,27,973.34
2008,01,04,10,28,973.10
2008,01,04,10,29,972.98
2008,01,04,10,30,972.91
2008,01,04,10,31,972.93
2008,01,04,10,32,972.86
2008,01,04,10,33,973.15
2008,01,04,10,34,973.15
2008,01,04,10,35,973.19
2008,01,04,10,36,973.38
2008,01,04,10,37,973.45
2008,01,04,10,38,973.52
2008,01,04,10,39,973.54
2008,01,04,10,40,973.38
2008,01,04,10,41,973.38
2008,01,04,10,42,973.39
2008,01,04,10,43,973.49
2008,01,04,10,44,973.45
2008,01,04,10,45,973.42
2008,01,04,10,46,973.42
2008,01,04,10,47,973.41
2008,01,04,10,48,973.25
2008,01,04,10,49,973.28
2008,01,04,10,50,973.28
2008,01,04,10,51,973.17
2008,01,04,10,52,973.08
2008,01,04,10,53,973.01
2008,01,04,10,54,972.91
2008,01,04,10,55,972.88
2008,01,04,10,56,972.91
2008,01,04,10,57,972.91
2008,01,04,10,58,972.84
2008,01,04,10,59,972.91
2008,01,04,11,00,972.98
2008,01,04,11,01,973.08
2008,01,04,11,02,973.05
2008,01,04,11,03,973.05
2008,01,04,11,04,973.05
2008,01,04,11,05,973.01
2008,01,04,11,06,972.98
2008,01,04,11,07,973.01
2008,01,04,11,08,973.05
2008,01,04,11,09,972.98
2008,01,04,11,10,973.08
2008,01,04,11,11,973.05
2008,01,04,11,12,973.01
2008,01,04,11,13,972.94
2008,01,04,11,14,972.94
2008,01,04,11,15,972.91
2008,01,04,11,16,972.94
2008,01,04,11,17,972.77
2008,01,04,11,18,972.77
2008,01,04,11,19,972.77
2008,01,04,11,20,972.67
2008,01,04,11,21,972.71
2008,01,04,11,22,972.71
2008,01,04,11,23,972.74
2008,01,04,11,24,972.77
2008,01,04,11,25,972.77
2008,01,04,11,26,972.73
2008,01,04,11,27,972.57
2008,01,04,11,28,972.61
2008,01,04,11,29,972.54
2008,01,04,11,30,972.57
2008,01,04,11,31,972.51
2008,01,04,11,32,972.61
2008,01,04,11,33,972.61
2008,01,04,11,34,972.61
2008,01,04,11,35,972.61
2008,01,04,11,36,972.71
2008,01,04,11,37,972.74
2008,01,04,11,38,972.77
2008,01,04,11,39,972.77
2008,01,04,11,40,972.84
2008,01,04,11,41,972.84
2008,01,04,11,42,972.84
2008,01,04,11,43,972.77
2008,01,04,11,44,972.77
2008,01,04,11,45,972.84
2008,01,04,11,46,972.88
2008,01,04,11,47,972.88
2008,01,04,11,48,972.84
2008,01,04,11,49,972.74
2008,01,04,11,50,972.71
2008,01,04,11,51,972.74
2008,01,04,11,52,972.71
2008,01,04,11,53,972.71
2008,01,04,11,54,972.77
2008,01,04,11,55,972.77
2008,01,04,11,56,972.77
2008,01,04,11,57,972.77
2008,01,04,11,58,972.67
2008,01,04,11,59,972.74
2008,01,04,12,00,972.67
2008,01,04,12,01,972.64
2008,01,04,12,02,972.71
2008,01,04,12,03,972.64
2008,01,04,12,04,972.57
2008,01,04,12,05,972.54
2008,01,04,12,06,972.54
2008,01,04,12,07,972.54
2008,01,04,12,08,972.57
2008,01,04,12,09,972.53
2008,01,04,12,10,972.44
2008,01,04,12,11,972.44
2008,01,04,12,12,972.50
2008,01,04,12,13,972.44
2008,01,04,12,14,972.57
2008,01,04,12,15,972.50
2008,01,04,12,16,972.47
2008,01,04,12,17,972.44
2008,01,04,12,18,972.40
2008,01,04,12,19,972.34
2008,01,04,12,20,972.44
2008,01,04,12,21,972.44
2008,01,04,12,22,972.37
2008,01,04,12,23,972.37
2008,01,04,12,24,972.37
2008,01,04,12,25,972.37
2008,01,04,12,26,972.33
2008,01,04,12,27,972.23
2008,01,04,12,28,972.33
2008,01,04,12,29,972.23
2008,01,04,12,30,972.27
2008,01,04,12,31,972.30
2008,01,04,12,32,972.27
2008,01,04,12,33,972.33
2008,01,04,12,34,972.33
2008,01,04,12,35,972.37
2008,01,04,12,36,972.44
2008,01,04,12,37,972.37
2008,01,04,12,38,972.44
2008,01,04,12,39,972.40
2008,01,04,12,40,972.44
2008,01,04,12,41,972.44
2008,01,04,12,42,972.50
2008,01,04,12,43,972.44
2008,01,04,12,44,972.50
2008,01,04,12,45,972.50
2008,01,04,12,46,972.44
2008,01,04,12,47,972.47
2008,01,04,12,48,972.50
2008,01,04,12,49,972.54
2008,01,04,12,50,972.47
2008,01,04,12,51,972.45
2008,01,04,12,52,972.54
2008,01,04,12,53,972.54
2008,01,04,12,54,972.54
2008,01,04,12,55,972.50
2008,01,04,12,56,972.57
2008,01,04,12,57,972.54
2008,01,04,12,58,972.64
2008,01,04,12,59,972.61
2008,01,04,13,00,972.54
2008,01,04,13,01,972.47
2008,01,04,13,02,972.50
2008,01,04,13,03,972.50
2008,01,04,13,04,972.58
2008,01,04,13,05,972.74
2008,01,04,13,06,972.71
2008,01,04,13,07,972.77
2008,01,04,13,08,972.77
2008,01,04,13,09,972.74
2008,01,04,13,10,972.74
2008,01,04,13,11,972.67
2008,01,04,13,12,972.64
2008,01,04,13,13,972.64
2008,01,04,13,14,972.57
2008,01,04,13,15,972.47
2008,01,04,13,16,972.37
2008,01,04,13,17,972.30
2008,01,04,13,18,972.27
2008,01,04,13,19,972.30
2008,01,04,13,20,972.23
2008,01,04,13,21,972.30
2008,01,04,13,22,972.30
2008,01,04,13,23,972.33
2008,01,04,13,24,972.23
2008,01,04,13,25,972.23
2008,01,04,13,26,972.27
2008,01,04,13,27,972.23
2008,01,04,13,28,972.33
2008,01,04,13,29,972.27
2008,01,04,13,30,972.27
2008,01,04,13,31,972.30
2008,01,04,13,32,972.33
2008,01,04,13,33,972.30
2008,01,04,13,34,972.37
2008,01,04,13,35,972.37
2008,01,04,13,36,972.37
2008,01,04,13,37,972.40
2008,01,04,13,38,972.37
2008,01,04,13,39,972.37
2008,01,04,13,40,972.30
2008,01,04,13,41,972.33
2008,01,04,13,42,972.33
2008,01,04,13,43,972.37
2008,01,04,13,44,972.37
2008,01,04,13,45,972.40
2008,01,04,13,46,972.37
2008,01,04,13,47,972.40
2008,01,04,13,48,972.40
2008,01,04,13,49,972.40
2008,01,04,13,50,972.40
2008,01,04,13,51,972.40
2008,01,04,13,52,972.40
2008,01,04,13,53,972.40
2008,01,04,13,54,972.44
2008,01,04,13,55,972.44
2008,01,04,13,56,972.44
2008,01,04,13,57,972.47
2008,01,04,13,58,972.47
2008,01,04,13,59,972.50
2008,01,04,14,00,972.47
2008,01,04,14,01,972.47
2008,01,04,14,02,972.47
2008,01,04,14,03,972.44
2008,01,04,14,04,972.40
2008,01,04,14,05,972.40
2008,01,04,14,06,972.44
2008,01,04,14,07,972.44
2008,01,04,14,08,972.47
2008,01,04,14,09,972.47
2008,01,04,14,10,972.47
2008,01,04,14,11,972.50
2008,01,04,14,12,972.50
2008,01,04,14,13,972.49
2008,01,04,14,14,972.40
2008,01,04,14,15,972.44
2008,01,04,14,16,972.44
2008,01,04,14,17,972.44
2008,01,04,14,18,972.57
2008,01,04,14,19,972.61
2008,01,04,14,20,972.57
2008,01,04,14,21,972.54
2008,01,04,14,22,972.51
2008,01,04,14,23,972.64
2008,01,04,14,24,972.61
2008,01,04,14,25,972.57
2008,01,04,14,26,972.57
2008,01,04,14,27,972.61
2008,01,04,14,28,972.61
2008,01,04,14,29,972.54
2008,01,04,14,30,972.54
2008,01,04,14,31,972.53
2008,01,04,14,32,972.44
2008,01,04,14,33,972.44
2008,01,04,14,34,972.44
2008,01,04,14,35,972.47
2008,01,04,14,36,972.44
2008,01,04,14,37,972.47
2008,01,04,14,38,972.47
2008,01,04,14,39,972.50
2008,01,04,14,40,972.50
2008,01,04,14,41,972.54
2008,01,04,14,42,972.50
2008,01,04,14,43,972.54
2008,01,04,14,44,972.54
2008,01,04,14,45,972.57
2008,01,04,14,46,972.54
2008,01,04,14,47,972.50
2008,01,04,14,48,972.47
2008,01,04,14,49,972.48
2008,01,04,14,50,972.61
2008,01,04,14,51,972.54
2008,01,04,14,52,972.50
2008,01,04,14,53,972.47
2008,01,04,14,54,972.44
2008,01,04,14,55,972.47
2008,01,04,14,56,972.47
2008,01,04,14,57,972.47
2008,01,04,14,58,972.37
2008,01,04,14,59,972.37
2008,01,04,15,00,972.37
2008,01,04,15,01,972.37
2008,01,04,15,02,972.33
2008,01,04,15,03,972.30
2008,01,04,15,04,972.27
2008,01,04,15,05,972.23
2008,01,04,15,06,972.23
2008,01,04,15,07,972.16
2008,01,04,15,08,972.16
2008,01,04,15,09,972.13
2008,01,04,15,10,972.10
2008,01,04,15,11,972.14
2008,01,04,15,12,972.23
2008,01,04,15,13,972.27
2008,01,04,15,14,972.33
2008,01,04,15,15,972.40
2008,01,04,15,16,972.44
2008,01,04,15,17,972.43
2008,01,04,15,18,972.33
2008,01,04,15,19,972.40
2008,01,04,15,20,972.40
2008,01,04,15,21,972.40
2008,01,04,15,22,972.40
2008,01,04,15,23,972.37
2008,01,04,15,24,972.40
2008,01,04,15,25,972.37
2008,01,04,15,26,972.40
2008,01,04,15,27,972.37
2008,01,04,15,28,972.33
2008,01,04,15,29,972.33
2008,01,04,15,30,972.33
2008,01,04,15,31,972.27
2008,01,04,15,32,972.23
2008,01,04,15,33,972.27
2008,01,04,15,34,972.27
2008,01,04,15,35,972.23
2008,01,04,15,36,972.23
2008,01,04,15,37,972.10
2008,01,04,15,38,972.16
2008,01,04,15,39,972.13
2008,01,04,15,40,972.09
2008,01,04,15,41,971.86
2008,01,04,15,42,971.96
2008,01,04,15,43,971.93
2008,01,04,15,44,971.96
2008,01,04,15,45,971.93
2008,01,04,15,46,971.93
2008,01,04,15,47,971.93
2008,01,04,15,48,971.76
2008,01,04,15,49,971.72
2008,01,04,15,50,971.69
2008,01,04,15,51,971.69
2008,01,04,15,52,971.59
2008,01,04,15,53,971.69
2008,01,04,15,54,971.62
2008,01,04,15,55,971.52
2008,01,04,15,56,971.45
2008,01,04,15,57,971.45
2008,01,04,15,58,971.45
2008,01,04,15,59,971.49
2008,01,04,16,00,971.56
2008,01,04,16,01,971.52
2008,01,04,16,02,971.49
2008,01,04,16,03,971.56
2008,01,04,16,04,971.49
2008,01,04,16,05,971.45
2008,01,04,16,06,971.42
2008,01,04,16,07,971.39
2008,01,04,16,08,971.39
2008,01,04,16,09,971.28
2008,01,04,16,10,971.35
2008,01,04,16,11,971.35
2008,01,04,16,12,971.28
2008,01,04,16,13,971.35
2008,01,04,16,14,971.35
2008,01,04,16,15,971.32
2008,01,04,16,16,971.32
2008,01,04,16,17,971.35
2008,01,04,16,18,971.35
2008,01,04,16,19,971.28
2008,01,04,16,20,971.18
2008,01,04,16,21,971.18
2008,01,04,16,22,971.15
2008,01,04,16,23,971.18
2008,01,04,16,24,971.08
2008,01,04,16,25,971.05
2008,01,04,16,26,971.05
2008,01,04,16,27,971.08
2008,01,04,16,28,971.05
2008,01,04,16,29,970.96
2008,01,04,16,30,971.08
2008,01,04,16,31,971.12
2008,01,04,16,32,971.08
2008,01,04,16,33,971.04
2008,01,04,16,34,970.81
2008,01,04,16,35,970.98
2008,01,04,16,36,970.95